Weather History for KOVS - November, 2012

Change the Weather History Date:

Saturday, November 10, 2012

  Actual Average (KPDC) Record (KPDC)
Temperature  
Mean Temperature 58 °F -  
Max Temperature 70 °F 46 °F 70 °F (1949)
Min Temperature 46 °F 31 °F 11 °F (1979)
Degree Days  
Heating Degree Days 7    
Growing Degree Days 8 (Base 50)    
Moisture  
Dew Point 49 °F    
Average Humidity 72    
Maximum Humidity 90    
Minimum Humidity 47    
Precipitation  
Precipitation 0.00 in - - ()
Sea Level Pressure  
Sea Level Pressure 29.81 in    
Wind  
Wind Speed 7 mph (SE)    
Max Wind Speed 14 mph    
Max Gust Speed 28 mph    
Visibility 7 miles    
Events Rain    
Averages and records for this station are not official NWS values.
T = Trace of Precipitation, MM = Missing Value Source: NWS Daily Summary

Daily Weather History Graph

Daily Weather History Graph

Search for Another Location

Airport or City:

Trip Planner

Search our weather history database for the weather conditions in past years. The results will help you decide how hot, cold, wet, or windy it might be!

Date:

Astronomy

Nov. 10, 2012 Rise Set
Actual Time 6:49 AM CST 4:43 PM CST
Civil Twilight 6:19 AM CST 5:13 PM CST
Nautical Twilight 5:45 AM CST 5:47 PM CST
Astronomical Twilight 5:11 AM CST 6:20 PM CST
Moon 2:49 AM CST (11/10) 2:34 PM CST (11/10)
Length of Visible Light 10h 53m
Length of Day
9h 53m
Waning Crescent, 14% of the Moon is Illuminated
Nov 10
Waning Crescent
Nov 13
New
Nov 20
First Quarter
Nov 28
Full
Dec 6
Last Quarter

Hourly Weather History & Observations

Time (CST) Temp. Dew Point Humidity Pressure Visibility Wind Dir Wind Speed Gust Speed Precip Events Conditions
12:53 AM 48.0 °F 43.0 °F 83% 29.96 in 5.0 mi ENE 6.9 mph - 0.00 in   Haze
1:53 AM 48.0 °F 43.0 °F 83% 29.95 in 5.0 mi Variable 4.6 mph - N/A   Haze
2:53 AM 48.0 °F 44.1 °F 86% 29.94 in 4.0 mi ENE 5.8 mph - 0.00 in Rain Light Rain
3:09 AM 48.2 °F 44.6 °F 87% 29.93 in 4.0 mi ENE 4.6 mph - 0.00 in   Overcast
3:19 AM 48.2 °F 44.6 °F 87% 29.92 in 4.0 mi NE 5.8 mph - 0.00 in   Overcast
3:53 AM 48.0 °F 44.1 °F 86% 29.92 in 4.0 mi ENE 4.6 mph - 0.00 in   Overcast
4:53 AM 48.0 °F 44.1 °F 86% 29.90 in 4.0 mi ENE 3.5 mph - N/A   Overcast
5:53 AM 48.0 °F 44.1 °F 86% 29.90 in 4.0 mi NE 4.6 mph - N/A   Overcast
6:53 AM 46.9 °F 44.1 °F 90% 29.88 in 4.0 mi NE 5.8 mph - N/A   Overcast
7:53 AM 48.9 °F 45.0 °F 86% 29.87 in 3.0 mi NNE 6.9 mph - N/A   Mostly Cloudy
8:53 AM 51.1 °F 46.0 °F 83% 29.84 in 4.0 mi Variable 3.5 mph - N/A   Haze
9:53 AM 59.0 °F 51.1 °F 75% 29.82 in 8.0 mi Calm Calm - N/A   Scattered Clouds
10:53 AM 64.9 °F 53.1 °F 65% 29.79 in 10.0 mi SSW 11.5 mph 20.7 mph N/A   Scattered Clouds
11:53 AM 66.9 °F 54.0 °F 63% 29.75 in 10.0 mi SSW 12.7 mph 21.9 mph N/A   Clear
12:53 PM 68.0 °F 53.1 °F 59% 29.73 in 10.0 mi South 13.8 mph 18.4 mph N/A   Clear
1:53 PM 70.0 °F 54.0 °F 57% 29.71 in 10.0 mi South 9.2 mph - N/A   Clear
2:53 PM 69.1 °F 54.0 °F 58% 29.72 in 10.0 mi South 9.2 mph 17.3 mph N/A   Clear
3:53 PM 69.1 °F 55.0 °F 61% 29.73 in 10.0 mi South 9.2 mph 17.3 mph N/A   Clear
4:53 PM 68.0 °F 55.0 °F 63% 29.71 in 10.0 mi South 5.8 mph - N/A   Partly Cloudy
5:53 PM 66.9 °F 55.0 °F 66% 29.71 in 10.0 mi South 8.1 mph - N/A   Clear
6:53 PM 66.0 °F 55.0 °F 68% 29.73 in 10.0 mi SSW 9.2 mph 18.4 mph N/A   Clear
7:53 PM 66.9 °F 54.0 °F 63% 29.71 in 10.0 mi Variable 3.5 mph - 0.00 in   Partly Cloudy
8:53 PM 68.0 °F 54.0 °F 61% 29.69 in 10.0 mi South 11.5 mph 16.1 mph N/A   Clear
10:53 PM 68.0 °F 46.9 °F 47% 29.69 in 10.0 mi South 13.8 mph 24.2 mph N/A   Clear
11:53 PM 66.9 °F 46.9 °F 49% 29.70 in 10.0 mi South 12.7 mph 27.6 mph 0.00 in Rain Light Rain